Wind_Speed
21 24 27 26 24 21 18 14 13 12 11 12 14 16 17 18 19 19 19 19 19 18 19 20 22 22 22 21 21 19 17 17 17 16 17 18 18 17 16 16 15 14 14 13 11 10 9 9 9 8 7 6 5 3 2 2 2 2 3 4 5 6 7
19 22 26 26 24 22 18 16 15 14 12 13 14 16 17 18 19 19 20 20 20 20 20 21 22 22 22 23 22 20 19 18 18 17 17 18 18 18 18 18 16 15 15 14 12 11 11 10 9 8 7 6 5 4 3 2 2 2 2 2 2 3 4
22 23 24 24 23 21 17 16 15 14 13 13 14 16 17 18 19 20 20 21 21 21 21 22 23 23 24 23 23 21 20 20 19 18 18 19 19 20 20 19 17 16 14 14 13 13 12 11 10 9 7 7 6 5 5 5 5 5 5 5 5 4 4
26 27 26 25 22 19 17 16 15 15 15 14 14 16 17 19 20 21 21 22 22 21 21 22 23 24 25 24 23 23 22 22 21 20 20 20 21 22 21 20 18 17 16 16 15 14 13 12 11 10 9 8 8 7 7 7 7 7 7 7 7 6 6
25 29 28 27 24 22 20 18 17 17 16 14 15 16 18 20 21 21 21 22 22 22 23 24 24 25 25 24 24 24 23 23 23 22 22 22 22 22 21 20 19 18 18 18 17 16 14 13 12 11 10 10 9 9 8 8 8 8 8 7 7 7 7
20 25 27 27 26 25 24 21 20 19 16 15 16 16 17 19 20 21 21 22 22 23 24 25 25 25 25 25 25 25 24 24 24 23 23 23 23 22 21 21 21 20 20 19 18 16 15 13 12 12 11 11 10 9 8 8 8 8 8 7 7 7 7
19 21 24 25 25 25 25 24 22 20 16 15 18 19 19 19 19 21 22 21 22 23 23 23 23 23 24 25 25 25 25 25 24 24 23 23 22 22 22 21 21 20 20 19 18 16 14 13 12 12 11 11 10 10 9 9 9 9 9 8 7 7 7
21 20 21 22 24 26 26 25 23 20 18 17 19 21 20 18 20 21 22 21 21 22 22 22 21 21 22 24 25 25 25 26 25 25 24 23 23 23 22 21 20 20 19 18 17 16 14 14 13 12 12 11 11 10 10 10 10 10 10 9 8 8 7
22 22 20 20 24 28 28 25 23 20 18 19 20 21 19 18 20 21 22 22 22 22 22 22 22 21 22 23 23 24 26 26 26 26 25 24 24 23 22 21 21 20 19 18 17 16 15 15 14 13 12 12 11 11 10 11 11 11 11 10 9 9 8
24 23 21 20 25 30 29 25 23 22 21 21 21 21 20 19 20 21 22 22 22 22 23 23 23 23 23 23 23 25 26 27 27 27 26 26 25 24 23 22 21 20 19 19 18 17 16 15 14 13 12 12 12 11 11 11 11 11 10 10 10 9 9
26 24 22 23 28 34 32 27 25 24 23 22 21 21 20 19 20 22 23 22 22 23 24 24 24 24 24 24 25 25 26 27 27 27 27 27 26 26 25 24 22 21 21 20 18 18 17 15 14 14 13 13 12 12 11 10 10 10 9 10 10 10 10
27 25 25 26 31 37 35 29 26 26 24 22 21 20 20 20 21 22 23 23 23 23 24 24 25 25 25 25 26 26 26 26 26 25 26 26 26 26 26 25 24 23 22 21 19 19 18 16 15 15 14 13 12 11 10 10 10 10 10 10 11 11 12
26 27 29 30 34 38 35 30 28 27 24 22 21 21 21 22 23 23 24 24 23 23 23 23 24 25 25 26 27 27 27 27 26 25 25 26 26 26 26 25 24 24 22 21 20 20 18 17 17 16 15 13 12 11 11 10 10 10 10 11 11 12 12
26 30 33 34 36 37 35 31 29 26 24 23 22 22 23 24 25 25 24 24 23 22 21 22 23 24 25 27 27 28 28 28 28 27 27 27 27 27 26 25 24 23 22 21 21 20 19 19 18 16 14 13 12 11 11 11 10 10 10 10 11 11 11
26 30 36 38 38 37 35 32 28 26 25 24 23 24 25 25 25 25 25 25 24 22 21 22 23 25 25 26 26 27 28 29 28 28 28 29 28 27 26 25 24 23 22 22 21 21 21 20 18 16 14 13 13 12 11 11 10 10 10 10 11 11 12
25 28 34 37 37 36 35 32 29 28 26 24 23 24 26 25 25 25 25 25 23 22 22 22 24 25 25 26 27 28 29 29 29 29 29 29 27 27 26 25 24 24 23 22 22 21 21 20 17 15 14 14 13 12 11 11 10 10 10 11 11 12 13
23 24 29 33 34 35 35 32 30 30 29 26 24 24 25 26 25 25 25 24 23 23 23 23 24 25 25 26 28 29 29 29 28 28 28 28 28 27 26 26 25 24 23 22 22 21 21 19 17 16 15 15 14 13 12 11 11 11 12 13 13 14 14
20 22 26 32 35 36 35 31 30 30 30 28 26 25 25 26 26 26 25 23 23 23 23 24 24 25 25 26 27 28 28 28 28 28 28 28 28 28 27 27 26 25 24 23 22 22 20 19 17 17 16 15 14 14 13 12 12 13 14 15 15 15 14
17 19 26 33 36 35 32 28 28 29 29 29 29 26 25 27 26 25 23 22 22 23 24 25 25 25 25 26 26 26 27 28 28 28 29 29 29 29 28 27 26 25 24 24 23 22 20 19 19 19 18 16 15 15 15 14 14 14 15 16 16 15 15
18 20 26 32 34 33 29 26 27 27 27 29 30 28 27 28 26 24 24 23 23 23 24 25 26 26 26 26 26 26 26 27 26 27 27 28 28 28 27 27 26 25 25 25 24 22 20 20 20 20 19 17 17 18 17 17 16 16 16 17 17 16 16
18 20 25 30 33 33 30 27 27 27 27 30 32 31 30 30 29 29 28 27 25 24 25 26 26 26 27 26 26 26 25 25 25 25 25 26 26 26 25 25 25 25 25 25 24 22 22 23 22 22 21 20 20 20 19 18 18 18 18 19 19 18 16
19 20 24 30 34 34 32 29 28 28 29 32 34 33 31 31 32 31 30 28 27 26 25 27 26 26 25 24 22 22 22 22 22 22 22 22 22 21 21 21 22 23 23 23 23 23 24 24 24 24 24 23 22 21 20 20 20 19 20 20 20 19 17
22 22 26 32 36 36 34 32 31 30 30 32 34 34 32 32 32 31 30 29 28 27 27 27 27 25 24 23 21 21 21 21 20 20 19 18 18 17 18 19 20 21 22 22 22 23 24 25 26 27 27 26 24 23 22 22 22 21 22 22 22 21 19
25 25 28 34 37 38 37 36 34 34 33 32 33 33 32 32 32 31 30 29 28 27 27 27 26 26 25 24 24 23 22 21 21 20 19 18 17 16 17 17 18 20 20 21 21 22 23 25 28 29 29 28 26 25 24 24 24 24 24 24 24 23 21
28 27 29 34 37 38 39 38 37 35 35 34 34 34 33 33 34 32 31 29 29 28 26 26 26 26 26 26 25 25 24 23 22 21 20 18 17 16 16 17 17 18 19 20 21 21 23 25 27 29 30 30 28 27 26 27 27 27 26 26 26 25 24
29 29 30 33 36 37 39 39 38 37 36 35 34 34 35 36 36 35 34 33 32 31 30 29 29 28 28 27 26 25 25 24 24 23 22 21 20 19 18 18 17 17 18 19 20 22 23 25 25 27 29 31 30 29 28 28 29 28 27 28 29 28 27
31 31 31 32 34 35 36 36 36 35 34 34 35 36 36 36 37 38 39 40 39 38 37 35 34 32 30 29 28 26 26 25 25 25 25 25 24 23 22 21 19 18 18 18 20 21 22 24 25 25 27 30 31 30 29 29 29 29 29 29 30 29 29
33 33 33 33 33 34 34 33 31 30 30 31 34 35 36 35 35 36 39 40 40 40 40 40 38 35 33 31 30 29 28 28 27 27 27 27 27 26 25 24 22 21 20 20 20 20 21 22 24 25 26 28 29 29 29 29 29 29 29 30 30 30 30
36 36 36 35 34 34 33 31 29 28 28 29 30 32 33 34 34 35 35 35 35 36 37 37 37 36 34 33 32 32 31 30 30 30 30 30 30 29 28 28 27 25 23 22 22 22 21 21 22 24 26 27 28 29 29 30 30 31 31 31 32 32 32
38 39 39 38 36 34 32 30 28 28 29 30 30 31 31 32 32 34 35 35 35 35 35 35 35 36 36 35 35 35 35 34 33 33 33 32 32 32 31 31 31 29 27 25 23 22 22 22 21 22 24 26 28 29 31 32 33 33 33 33 33 34 34
38 39 38 36 35 33 31 29 27 27 29 30 31 31 32 32 33 33 34 36 37 38 38 38 37 37 37 37 37 37 36 36 35 34 34 34 34 34 34 34 34 33 31 28 25 23 23 23 23 23 23 24 26 28 31 34 35 35 34 34 34 34 34
38 38 37 35 33 31 30 30 29 28 28 29 30 31 32 33 35 35 36 37 39 40 41 41 41 41 40 39 39 38 37 37 36 35 35 36 37 37 37 37 36 36 34 32 28 26 25 25 25 24 24 25 25 26 29 32 33 33 33 33 33 33 33
39 38 37 35 33 31 31 31 30 30 29 28 29 29 30 31 33 35 37 38 40 41 42 43 44 44 44 43 42 41 40 39 39 39 39 40 40 41 40 39 38 38 36 34 31 29 27 27 27 26 26 26 26 26 27 28 29 30 31 32 32 32 33
40 39 39 37 36 33 32 31 31 31 30 29 29 28 29 29 30 33 35 37 38 40 40 41 42 43 44 45 44 44 43 43 42 42 42 42 42 42 42 41 40 39 38 37 34 32 30 29 29 28 28 28 28 28 27 26 26 27 29 30 31 32 32
43 42 42 41 39 37 35 33 32 32 32 32 32 31 30 29 30 31 32 33 34 36 37 38 39 40 41 42 42 42 42 41 40 39 38 38 38 38 40 41 41 41 40 38 37 35 34 32 32 31 31 31 31 30 29 28 27 28 29 30 31 31 32
48 46 45 44 42 40 38 36 35 34 34 34 34 33 32 31 30 30 30 29 30 31 33 34 35 36 36 37 37 37 36 36 35 33 32 32 31 32 34 37 39 39 40 39 39 38 37 36 35 35 35 35 34 33 32 31 31 31 31 31 32 33 33
51 50 48 47 45 43 41 39 37 36 36 35 35 35 34 32 31 30 29 29 28 29 30 31 32 33 33 33 33 33 33 33 32 31 29 29 28 28 28 30 33 35 36 38 38 39 39 38 38 38 39 39 38 38 37 37 36 35 35 35 36 36 37
53 52 50 49 47 45 43 42 41 39 37 36 36 36 35 34 33 32 31 30 30 29 30 30 31 32 33 33 33 33 33 32 31 31 30 29 28 28 28 28 29 31 32 34 37 38 39 39 40 41 42 42 41 40 40 39 39 39 39 39 39 39 40
Wind_Direction
203 211 216 216 212 200 187 190 204 208 199 192 196 197 192 190 192 194 196 195 192 186 181 181 183 186 189 194 198 198 194 193 197 201 200 197 194 189 184 183 183 178 176 176 172 168 167 165 163 159 156 154 151 145 129 107 82 60 49 47 45 44 47
194 202 212 216 211 194 184 190 199 203 200 194 198 201 198 195 195 196 197 196 195 190 182 180 183 185 189 193 196 195 192 191 198 201 200 199 193 188 186 187 186 181 176 170 165 166 170 171 169 169 171 178 184 193 206 224 244 259 277 304 333 2 20
186 190 199 207 202 189 187 193 195 200 202 197 198 202 204 203 201 199 199 198 198 196 188 182 182 185 189 193 194 194 191 191 196 198 198 199 195 190 190 189 187 182 175 168 166 169 174 176 179 183 189 201 213 224 234 246 258 263 265 268 276 288 306
185 186 190 194 191 187 190 191 193 203 205 200 198 201 205 206 205 202 200 199 199 197 194 188 185 187 189 191 193 193 193 193 195 196 197 198 196 193 192 191 187 183 177 174 175 177 182 185 190 199 209 220 232 241 249 257 263 267 267 266 267 272 279
187 187 191 193 190 189 191 190 193 203 207 206 202 202 205 207 206 203 200 200 200 197 196 194 190 190 189 190 192 193 194 196 196 196 197 197 196 194 194 193 190 187 182 180 181 185 189 193 199 209 220 230 240 246 253 258 261 263 266 267 269 270 272
196 190 192 197 196 192 190 190 196 202 207 210 206 204 207 208 207 206 202 200 201 200 201 200 195 192 191 191 193 195 196 198 199 199 198 196 195 193 194 194 192 190 188 186 187 190 193 198 205 213 222 230 237 244 249 254 259 262 263 267 271 274 275
217 200 194 198 201 197 191 192 197 200 203 207 207 206 206 205 206 206 204 201 201 202 204 204 201 198 195 195 196 197 197 199 200 200 198 195 193 193 195 196 194 192 191 190 192 194 197 203 208 211 217 225 232 239 245 251 257 262 264 266 267 270 275
226 211 200 201 205 205 201 198 197 197 200 206 209 209 206 204 206 205 202 200 201 202 201 203 204 202 201 200 201 200 199 199 199 199 197 193 191 194 196 197 197 195 193 193 195 197 199 205 209 212 217 224 231 237 244 250 255 259 263 263 263 264 266
226 216 206 204 207 210 208 204 199 197 202 209 211 211 206 204 206 205 201 199 198 199 199 201 203 202 202 202 202 203 202 200 198 196 193 190 190 193 195 196 198 197 195 195 196 198 202 207 212 216 220 226 232 237 242 247 251 255 258 261 261 260 259
225 219 211 204 202 206 206 202 201 201 205 209 210 208 202 199 204 204 200 197 197 198 199 200 202 201 200 200 200 201 203 201 198 194 190 188 190 192 194 195 197 195 195 196 197 201 207 212 216 219 221 225 231 237 241 245 249 251 252 254 254 253 253
220 218 217 208 199 203 204 200 202 206 207 209 209 204 198 197 201 200 196 194 194 198 200 200 201 200 198 199 198 198 200 201 199 193 189 189 191 192 192 193 194 193 195 197 199 205 211 213 216 219 221 225 230 237 242 245 246 245 242 240 241 242 244
212 212 216 210 200 202 204 200 203 207 208 208 205 199 197 198 201 198 193 191 192 196 200 199 200 200 198 197 195 193 195 197 196 193 191 192 194 193 191 192 193 194 197 200 202 208 212 213 216 219 222 226 230 235 239 239 238 236 232 230 230 233 237
207 207 212 209 201 202 203 201 204 206 205 203 199 195 197 200 200 197 193 192 191 194 198 199 199 198 197 194 191 189 189 190 191 192 193 196 197 194 192 192 194 197 200 202 205 209 212 213 217 220 223 227 229 231 232 231 230 230 227 225 225 228 232
205 203 204 203 201 201 203 204 204 200 196 195 194 194 197 199 197 195 194 193 191 192 196 198 198 197 195 192 188 185 186 188 191 194 197 199 199 196 195 195 197 200 202 204 206 209 211 214 218 222 223 224 226 228 228 226 224 221 220 218 215 215 215
201 198 196 197 198 199 203 204 199 191 188 190 192 194 196 196 194 193 194 193 189 190 193 197 198 196 194 191 187 186 188 191 195 198 200 201 200 198 198 199 200 202 203 204 207 209 212 217 220 222 223 221 223 225 224 222 220 216 213 208 201 197 194
195 195 195 196 197 198 201 202 195 188 186 187 191 195 196 194 190 189 191 191 189 190 192 195 197 197 194 192 191 192 194 196 198 200 200 200 200 199 200 201 202 203 204 205 207 211 215 218 220 222 223 223 223 222 219 217 215 210 207 201 193 187 181
189 193 197 197 196 198 200 197 192 190 190 189 192 197 197 192 187 186 187 187 188 192 194 195 196 197 195 195 196 198 198 199 200 201 200 199 199 200 201 201 203 204 205 206 208 212 216 218 219 220 224 226 225 224 219 213 209 205 202 197 191 184 179
187 193 197 195 194 197 197 195 195 196 194 192 193 196 196 191 187 185 183 183 188 193 195 195 196 196 195 196 199 200 199 200 200 199 198 197 197 199 200 202 203 205 207 208 210 214 218 219 220 221 225 227 226 226 221 213 208 204 201 198 194 190 186
189 194 197 195 194 195 193 194 199 200 195 192 193 196 195 192 189 186 180 179 185 191 194 195 194 194 193 195 198 198 197 198 198 196 196 196 197 199 201 203 205 207 209 211 213 216 219 222 223 224 226 227 225 225 221 214 208 206 205 204 201 200 198
189 194 197 196 194 190 188 192 198 198 194 191 193 196 195 193 192 189 185 182 183 185 188 190 191 190 189 191 194 195 195 196 196 195 197 198 200 202 204 206 208 211 214 216 217 217 220 225 228 228 228 227 226 225 223 218 212 209 210 211 210 209 208
194 199 198 194 189 184 184 191 195 194 194 192 192 196 196 194 194 194 192 188 183 180 181 183 185 185 186 189 193 194 195 195 197 199 201 204 207 209 210 212 215 218 221 223 223 222 223 226 229 231 230 227 226 226 224 221 217 215 216 218 219 218 215
204 209 203 194 188 183 185 193 193 191 194 194 194 196 197 197 198 199 197 191 184 181 181 180 179 179 181 185 187 188 190 191 194 198 202 206 210 212 214 216 219 221 224 226 227 227 228 228 229 231 231 227 226 227 226 224 221 221 223 225 226 225 222
212 212 205 197 190 186 188 194 194 191 194 196 197 198 197 198 200 201 200 194 187 183 183 181 178 177 179 182 183 185 188 191 193 197 202 206 209 212 215 217 219 223 225 227 229 230 232 231 229 229 229 228 227 226 225 226 225 224 227 231 232 230 228
217 209 203 198 193 188 191 196 196 193 196 198 198 200 200 200 200 201 201 197 190 187 185 181 180 180 181 186 191 194 195 198 199 202 205 209 211 215 219 221 222 225 228 229 231 232 234 233 231 229 229 229 227 224 223 225 226 226 228 234 236 235 232
213 204 201 199 196 193 195 198 198 198 200 199 199 201 203 203 202 201 200 198 194 192 187 182 184 188 189 193 198 201 204 206 207 209 211 215 218 221 224 226 227 230 231 231 231 233 236 237 235 232 230 229 228 226 224 226 228 228 229 233 237 237 236
206 200 199 201 201 199 199 200 201 202 203 201 200 201 204 207 204 199 199 200 198 196 193 189 190 195 197 198 199 203 208 210 212 215 217 220 224 226 229 231 232 234 237 237 235 234 236 239 239 237 233 231 230 229 227 227 230 232 233 235 238 239 239
201 199 198 201 204 204 205 206 205 205 204 202 201 202 205 209 207 201 200 201 200 198 197 196 195 197 200 201 200 202 207 211 215 218 221 223 226 228 230 233 236 239 242 245 243 240 238 238 239 239 237 234 233 233 232 231 232 236 238 239 240 241 242
199 199 200 202 205 208 210 212 211 209 206 203 202 203 205 208 209 207 206 205 203 202 200 198 197 198 199 201 202 203 206 209 213 218 223 227 230 232 234 236 239 242 245 247 247 245 243 241 239 237 237 236 234 234 234 235 236 239 242 243 244 243 244
198 200 202 205 208 210 213 215 214 212 210 206 204 202 202 204 207 211 212 211 210 209 205 201 200 199 200 202 204 206 207 208 211 216 221 225 230 233 237 239 242 244 247 248 247 245 244 245 243 239 237 237 236 235 235 236 238 240 243 244 244 244 243
200 201 203 205 208 211 212 213 212 212 210 206 203 201 201 202 204 207 211 213 213 212 209 208 207 205 205 206 207 209 210 211 213 216 219 222 226 229 233 237 241 244 246 247 248 245 244 246 247 244 241 239 240 240 239 239 240 242 243 244 243 242 241
204 203 204 206 208 211 213 213 212 210 208 205 204 203 203 204 204 205 206 209 210 210 209 209 210 211 212 213 214 215 216 217 218 219 220 222 225 227 229 233 237 241 243 245 246 245 244 244 246 247 246 243 242 243 243 243 243 244 244 245 244 243 242
207 208 208 210 212 214 216 216 215 212 209 206 205 206 206 206 206 206 206 206 207 208 208 208 208 210 212 214 216 218 219 220 222 223 223 224 225 226 228 231 234 237 240 243 244 243 242 242 244 247 248 248 247 246 245 245 245 244 244 245 245 245 245
211 212 214 215 218 218 218 218 218 216 213 209 207 208 209 209 208 207 208 208 209 210 210 210 210 211 213 214 216 217 219 220 222 224 225 226 226 226 228 230 232 235 238 241 243 243 241 241 243 245 248 250 250 250 249 247 246 246 245 244 245 245 245
213 215 218 221 223 223 222 222 221 220 218 216 215 213 213 213 212 210 209 210 211 213 214 214 214 214 216 217 218 219 219 220 222 225 227 228 229 229 229 230 231 232 235 237 240 241 241 241 242 244 246 248 249 250 251 250 249 248 247 245 245 245 245
215 216 220 223 225 225 225 224 223 221 221 221 221 220 217 214 211 209 209 209 211 213 215 216 217 217 219 220 222 223 223 224 226 228 230 232 233 234 234 233 233 232 233 234 236 238 239 240 241 242 244 246 247 248 249 250 250 249 249 248 248 247 247
215 217 220 223 225 227 226 224 224 224 225 225 224 223 220 215 210 207 208 209 211 213 216 218 218 219 220 222 223 224 226 227 228 228 230 233 234 235 236 236 236 236 235 234 234 235 237 239 240 241 243 245 246 248 249 249 249 249 250 251 251 252 253
215 217 219 222 224 226 225 225 226 227 228 230 230 229 226 221 216 212 210 211 214 216 217 218 218 219 220 221 223 224 225 227 228 229 232 234 235 236 236 236 237 238 238 237 237 237 239 239 240 242 243 245 246 247 248 249 250 251 251 252 253 254 255
217 218 220 222 224 225 226 227 228 230 232 235 237 237 234 229 224 220 218 217 218 219 220 220 219 218 219 220 222 224 226 228 229 231 234 237 238 238 239 238 239 239 240 240 241 241 242 242 242 243 245 247 248 249 251 252 253 254 255 256 257 258 259
Height
5867 5869 5870 5872 5875 5877 5879 5881 5883 5885 5886 5887 5887 5888 5889 5891 5892 5894 5896 5899 5901 5903 5904 5906 5907 5910 5913 5915 5917 5919 5922 5924 5925 5926 5927 5929 5930 5932 5933 5934 5935 5936 5937 5938 5939 5941 5942 5943 5944 5944 5945 5945 5946 5946 5947 5948 5948 5948 5948 5949 5949 5949 5949
5864 5866 5868 5871 5873 5876 5877 5879 5881 5883 5885 5886 5886 5887 5889 5890 5891 5893 5895 5897 5899 5901 5903 5904 5906 5909 5911 5913 5915 5918 5920 5922 5924 5925 5926 5928 5929 5931 5932 5933 5934 5935 5936 5937 5939 5940 5942 5943 5943 5944 5945 5945 5946 5946 5947 5947 5948 5948 5949 5949 5949 5949 5949
5861 5864 5867 5869 5872 5874 5875 5877 5879 5881 5883 5885 5885 5887 5888 5889 5891 5892 5894 5896 5898 5900 5901 5903 5905 5907 5909 5911 5914 5917 5919 5921 5922 5924 5926 5927 5928 5930 5931 5932 5933 5935 5936 5937 5938 5939 5941 5942 5943 5944 5944 5945 5945 5946 5946 5947 5948 5948 5949 5949 5949 5949 5949
5859 5861 5865 5867 5870 5872 5873 5875 5878 5880 5882 5883 5884 5885 5886 5888 5889 5891 5893 5894 5896 5899 5901 5902 5903 5905 5907 5910 5913 5915 5917 5919 5921 5922 5924 5926 5927 5928 5930 5931 5932 5934 5935 5936 5937 5938 5940 5941 5942 5943 5943 5944 5944 5945 5945 5946 5947 5948 5948 5948 5949 5949 5949
5857 5859 5862 5864 5867 5869 5871 5873 5875 5878 5880 5881 5883 5883 5885 5886 5888 5889 5891 5893 5895 5897 5899 5900 5901 5903 5905 5908 5911 5914 5916 5917 5919 5920 5922 5924 5926 5928 5929 5930 5931 5933 5934 5935 5936 5937 5939 5940 5941 5942 5942 5943 5943 5944 5944 5945 5946 5947 5947 5948 5948 5948 5948
5856 5858 5859 5861 5864 5865 5868 5871 5873 5876 5878 5880 5881 5882 5883 5884 5886 5888 5890 5891 5893 5895 5896 5898 5900 5902 5904 5907 5909 5912 5914 5916 5917 5919 5921 5923 5925 5927 5928 5929 5931 5932 5933 5934 5935 5936 5937 5939 5940 5941 5941 5942 5942 5942 5943 5944 5944 5945 5946 5946 5947 5947 5947
5854 5857 5858 5860 5862 5864 5866 5868 5871 5873 5875 5877 5878 5879 5880 5882 5884 5886 5887 5889 5891 5892 5895 5897 5899 5901 5903 5905 5907 5910 5912 5914 5916 5918 5919 5922 5924 5926 5927 5929 5930 5931 5932 5933 5934 5935 5936 5937 5939 5939 5940 5940 5941 5941 5942 5942 5943 5943 5944 5945 5946 5946 5946
5852 5854 5857 5859 5860 5862 5864 5866 5868 5870 5872 5874 5875 5876 5879 5880 5882 5884 5885 5887 5889 5890 5893 5895 5898 5900 5902 5904 5906 5908 5910 5912 5914 5916 5918 5921 5923 5925 5926 5928 5929 5931 5932 5933 5934 5934 5935 5936 5937 5938 5939 5939 5940 5940 5940 5941 5941 5942 5943 5944 5944 5945 5946
5848 5851 5854 5856 5858 5860 5861 5863 5865 5868 5870 5872 5873 5875 5877 5879 5881 5883 5884 5885 5886 5889 5891 5893 5896 5898 5900 5902 5905 5907 5908 5910 5912 5914 5917 5919 5921 5923 5925 5927 5928 5930 5931 5932 5933 5934 5935 5935 5936 5937 5938 5938 5938 5939 5939 5939 5940 5940 5941 5942 5943 5943 5944
5844 5847 5850 5852 5855 5857 5859 5861 5862 5864 5867 5869 5871 5873 5875 5877 5879 5881 5882 5883 5885 5887 5889 5891 5893 5896 5898 5900 5902 5904 5906 5908 5911 5913 5915 5917 5919 5921 5923 5925 5927 5929 5930 5931 5932 5933 5934 5935 5936 5936 5937 5937 5937 5937 5937 5938 5938 5939 5939 5940 5941 5941 5942
5840 5843 5846 5849 5852 5854 5855 5857 5859 5861 5864 5866 5869 5871 5874 5875 5877 5879 5880 5881 5883 5885 5887 5889 5891 5893 5896 5898 5900 5902 5905 5907 5910 5912 5914 5916 5918 5920 5922 5923 5925 5927 5928 5930 5931 5932 5933 5934 5935 5935 5935 5935 5935 5936 5936 5936 5936 5937 5938 5938 5939 5940 5940
5837 5840 5843 5846 5849 5851 5852 5855 5857 5859 5862 5864 5867 5870 5872 5874 5875 5877 5878 5879 5881 5883 5885 5887 5889 5891 5894 5896 5898 5901 5903 5906 5909 5911 5913 5915 5916 5918 5920 5922 5924 5925 5927 5928 5929 5930 5931 5932 5933 5934 5934 5934 5934 5934 5934 5934 5935 5935 5936 5937 5937 5938 5938
5834 5837 5840 5843 5846 5849 5850 5852 5854 5857 5859 5862 5864 5867 5869 5871 5873 5875 5876 5878 5879 5881 5883 5886 5888 5890 5892 5894 5896 5899 5902 5905 5908 5910 5912 5913 5915 5916 5918 5920 5922 5924 5925 5927 5928 5929 5930 5931 5932 5932 5932 5932 5933 5932 5932 5933 5933 5934 5934 5935 5936 5936 5937
5831 5834 5837 5840 5843 5846 5848 5850 5852 5854 5857 5859 5862 5865 5867 5869 5871 5873 5874 5876 5878 5880 5882 5885 5887 5889 5891 5893 5895 5898 5901 5903 5906 5908 5910 5911 5913 5915 5917 5919 5920 5922 5923 5925 5926 5927 5928 5929 5930 5930 5931 5931 5931 5931 5931 5931 5932 5932 5933 5934 5934 5935 5935
5829 5831 5833 5836 5840 5843 5846 5848 5850 5852 5854 5857 5860 5862 5864 5866 5868 5870 5872 5874 5876 5878 5881 5883 5886 5888 5890 5893 5895 5897 5899 5901 5903 5905 5907 5909 5911 5913 5915 5917 5919 5920 5921 5923 5924 5925 5926 5927 5928 5929 5930 5930 5930 5930 5930 5930 5930 5931 5931 5932 5933 5934 5934
5827 5829 5831 5834 5837 5841 5844 5846 5849 5851 5853 5855 5858 5860 5863 5865 5867 5869 5871 5873 5875 5877 5879 5882 5884 5887 5889 5892 5894 5895 5897 5899 5901 5903 5905 5907 5910 5912 5913 5915 5917 5918 5920 5921 5922 5923 5924 5926 5927 5928 5928 5928 5928 5928 5928 5929 5929 5929 5930 5931 5932 5932 5933
5825 5827 5830 5832 5836 5839 5841 5844 5847 5848 5850 5853 5856 5859 5862 5864 5866 5868 5869 5872 5874 5876 5878 5880 5883 5885 5888 5890 5892 5893 5895 5897 5899 5901 5903 5906 5907 5909 5911 5913 5915 5917 5918 5919 5920 5921 5922 5924 5925 5926 5926 5926 5927 5927 5927 5927 5927 5928 5928 5929 5930 5931 5932
5824 5826 5828 5831 5834 5836 5839 5842 5844 5846 5848 5851 5855 5858 5861 5863 5864 5866 5868 5870 5873 5874 5877 5879 5881 5884 5886 5888 5890 5892 5894 5896 5897 5900 5902 5904 5905 5907 5909 5911 5913 5915 5916 5917 5918 5919 5920 5922 5923 5924 5925 5925 5925 5925 5925 5926 5926 5926 5927 5927 5928 5929 5930
5823 5825 5827 5829 5831 5834 5838 5840 5842 5844 5847 5850 5853 5857 5859 5861 5863 5865 5868 5870 5871 5873 5875 5878 5880 5882 5885 5887 5889 5891 5893 5894 5896 5898 5900 5902 5903 5905 5907 5909 5911 5913 5914 5915 5916 5917 5919 5920 5921 5922 5923 5924 5924 5924 5924 5924 5924 5924 5925 5925 5926 5927 5928
5821 5823 5825 5827 5830 5833 5836 5838 5840 5842 5845 5848 5851 5855 5857 5859 5862 5864 5865 5867 5869 5871 5874 5876 5878 5881 5883 5885 5887 5889 5891 5893 5895 5897 5899 5900 5902 5903 5905 5907 5909 5911 5912 5913 5914 5916 5917 5918 5919 5921 5921 5922 5922 5922 5922 5923 5923 5923 5923 5924 5924 5925 5926
5819 5821 5823 5825 5828 5831 5834 5836 5838 5840 5842 5845 5848 5851 5853 5856 5859 5861 5862 5864 5867 5869 5872 5874 5877 5879 5882 5884 5886 5888 5890 5892 5894 5896 5898 5899 5901 5902 5904 5906 5907 5908 5909 5910 5912 5914 5915 5916 5918 5919 5920 5920 5920 5920 5921 5921 5921 5921 5922 5922 5923 5924 5925
5816 5819 5821 5824 5826 5829 5832 5834 5836 5838 5840 5843 5845 5848 5851 5854 5856 5858 5861 5863 5865 5868 5871 5873 5876 5878 5881 5883 5885 5887 5889 5891 5893 5895 5896 5898 5899 5901 5903 5904 5905 5906 5907 5908 5909 5911 5912 5914 5916 5917 5917 5918 5918 5919 5919 5919 5920 5920 5920 5920 5921 5922 5924
5814 5816 5819 5822 5824 5827 5830 5832 5834 5836 5838 5841 5843 5846 5849 5852 5854 5857 5859 5862 5864 5867 5869 5872 5875 5877 5880 5882 5884 5886 5888 5890 5892 5893 5895 5897 5898 5900 5901 5902 5903 5904 5904 5906 5907 5908 5910 5912 5913 5914 5914 5915 5916 5917 5917 5917 5918 5918 5918 5918 5919 5921 5922
5811 5814 5816 5819 5822 5825 5827 5829 5831 5833 5836 5838 5842 5845 5848 5850 5852 5855 5858 5860 5863 5865 5868 5871 5874 5876 5878 5881 5883 5885 5887 5889 5891 5892 5894 5895 5897 5898 5899 5900 5901 5901 5902 5904 5905 5906 5907 5908 5909 5910 5912 5913 5914 5915 5915 5914 5915 5915 5916 5916 5917 5918 5920
5808 5811 5814 5816 5820 5822 5824 5827 5829 5831 5834 5837 5840 5843 5846 5848 5850 5853 5856 5859 5862 5864 5867 5870 5873 5875 5877 5879 5881 5883 5885 5887 5889 5891 5892 5894 5895 5896 5897 5897 5898 5899 5900 5901 5903 5904 5904 5905 5906 5908 5909 5910 5911 5912 5912 5912 5912 5912 5913 5914 5914 5916 5917
5806 5809 5811 5814 5817 5819 5822 5824 5827 5829 5832 5835 5838 5841 5844 5845 5847 5850 5853 5856 5859 5862 5865 5868 5870 5872 5874 5876 5879 5881 5883 5885 5887 5889 5890 5891 5892 5893 5894 5895 5896 5897 5898 5899 5900 5901 5902 5903 5904 5905 5906 5907 5908 5909 5910 5910 5909 5910 5911 5911 5912 5913 5913
5803 5806 5809 5811 5814 5817 5820 5823 5825 5828 5830 5833 5836 5839 5841 5843 5844 5846 5849 5852 5855 5858 5861 5864 5866 5869 5872 5874 5876 5878 5881 5882 5884 5886 5887 5888 5889 5890 5891 5892 5893 5894 5896 5897 5897 5898 5899 5900 5901 5902 5903 5904 5905 5906 5906 5907 5907 5907 5908 5909 5909 5910 5910
5800 5803 5806 5808 5811 5814 5817 5820 5823 5826 5829 5832 5834 5837 5839 5841 5843 5844 5846 5848 5851 5853 5856 5859 5862 5865 5868 5870 5873 5875 5877 5879 5881 5883 5884 5885 5886 5887 5889 5890 5891 5892 5893 5894 5895 5896 5897 5897 5898 5899 5900 5901 5901 5902 5903 5904 5904 5905 5905 5906 5906 5907 5907
5797 5800 5803 5805 5808 5812 5815 5818 5821 5824 5826 5829 5831 5834 5836 5838 5840 5842 5844 5847 5849 5851 5853 5855 5858 5861 5864 5866 5869 5871 5873 5875 5877 5879 5880 5882 5883 5884 5885 5886 5888 5889 5890 5891 5892 5893 5894 5894 5895 5896 5897 5897 5898 5899 5900 5901 5901 5902 5902 5903 5903 5903 5904
5794 5797 5800 5803 5806 5809 5812 5815 5818 5821 5823 5826 5828 5830 5833 5835 5837 5839 5842 5844 5847 5849 5852 5854 5856 5858 5860 5863 5865 5867 5869 5871 5873 5875 5877 5878 5879 5881 5882 5883 5884 5885 5887 5888 5889 5890 5891 5892 5892 5893 5893 5894 5895 5896 5896 5897 5897 5898 5899 5900 5900 5900 5901
5790 5793 5797 5800 5803 5806 5809 5812 5815 5817 5820 5822 5825 5827 5829 5832 5834 5836 5839 5841 5843 5846 5849 5851 5853 5855 5857 5859 5862 5864 5866 5867 5869 5871 5873 5874 5876 5877 5879 5879 5880 5881 5883 5884 5886 5887 5888 5889 5889 5890 5890 5891 5891 5892 5892 5893 5893 5894 5895 5896 5896 5897 5898
5786 5790 5793 5797 5800 5803 5806 5809 5811 5814 5816 5819 5821 5824 5826 5829 5831 5833 5836 5838 5840 5842 5844 5847 5849 5851 5853 5856 5858 5860 5862 5864 5865 5867 5869 5870 5871 5873 5874 5875 5876 5878 5879 5880 5882 5883 5884 5885 5886 5887 5887 5887 5888 5888 5888 5888 5889 5891 5892 5892 5893 5894 5895
5782 5786 5790 5793 5796 5799 5802 5805 5808 5810 5813 5815 5818 5820 5823 5825 5828 5830 5833 5835 5837 5839 5841 5843 5845 5847 5849 5851 5853 5855 5857 5859 5861 5862 5864 5865 5866 5867 5869 5871 5872 5874 5875 5877 5878 5879 5881 5882 5883 5883 5884 5884 5884 5884 5884 5885 5886 5888 5888 5889 5889 5890 5891
5779 5782 5786 5789 5792 5795 5798 5801 5804 5807 5809 5812 5814 5817 5819 5822 5824 5827 5829 5832 5834 5836 5838 5840 5842 5844 5846 5848 5849 5851 5853 5854 5856 5857 5858 5860 5861 5863 5865 5866 5868 5869 5871 5872 5873 5875 5876 5877 5878 5879 5880 5880 5881 5881 5881 5882 5884 5885 5885 5885 5886 5886 5887
5775 5778 5782 5785 5788 5791 5795 5798 5800 5803 5806 5808 5810 5813 5816 5818 5821 5823 5826 5828 5830 5832 5834 5836 5838 5840 5842 5844 5845 5847 5848 5850 5851 5853 5854 5856 5857 5859 5861 5862 5863 5865 5866 5867 5869 5870 5871 5873 5874 5875 5875 5876 5877 5877 5878 5880 5881 5881 5881 5882 5882 5883 5883
5770 5774 5777 5781 5784 5788 5791 5794 5797 5799 5802 5804 5807 5809 5812 5815 5817 5820 5822 5824 5827 5829 5831 5833 5835 5836 5838 5840 5842 5843 5845 5846 5848 5849 5851 5852 5854 5855 5857 5858 5859 5860 5861 5863 5864 5865 5866 5868 5869 5870 5871 5871 5872 5873 5874 5875 5876 5877 5878 5878 5879 5879 5880
5766 5770 5773 5777 5780 5784 5787 5790 5793 5795 5798 5800 5803 5805 5808 5811 5813 5816 5818 5821 5823 5825 5827 5830 5831 5833 5834 5836 5838 5839 5841 5842 5844 5845 5847 5848 5850 5851 5852 5853 5855 5856 5857 5858 5859 5860 5861 5863 5864 5865 5866 5867 5868 5869 5870 5871 5872 5873 5873 5874 5875 5875 5875
5763 5766 5770 5773 5776 5780 5783 5786 5788 5791 5794 5796 5799 5801 5804 5806 5809 5812 5814 5817 5819 5821 5824 5826 5828 5830 5831 5832 5834 5835 5837 5838 5840 5842 5843 5845 5846 5847 5848 5849 5850 5851 5852 5854 5855 5855 5856 5858 5859 5860 5861 5862 5863 5864 5866 5867 5867 5868 5868 5869 5870 5870 5871